| time (UTC) | temp C | wind direction | speed KPH | gust KPH | rain 1hr cm | rain 24hr cm | rain mn cm | humidity % | barometer mb |
| 20260508014015 | 14 | 0.0 | 0.0 | 0.00 | 0.00 | 0.00 | 75 | 1013.4 | |
| 20260508013035 | 14 | 0.0 | 0.0 | 0.00 | 0.00 | 0.00 | 75 | 1013.4 | |
| 20260508012015 | 14 | 0.0 | 0.0 | 0.00 | 0.00 | 0.00 | 75 | 1013.5 | |
| 20260508011015 | 14 | 0.0 | 0.0 | 0.00 | 0.00 | 0.00 | 75 | 1013.4 | |
| 20260508010015 | 14 | 0.0 | 0.0 | 0.00 | 0.00 | 0.00 | 75 | 1013.5 | |
| 20260508005016 | 14 | 0.0 | 0.0 | 0.00 | 0.00 | 0.00 | 74 | 1013.5 | |
| 20260508004015 | 14 | 0.0 | 0.0 | 0.00 | 0.00 | 0.00 | 74 | 1013.4 | |
| 20260508003015 | 14 | 0.0 | 1.6 | 0.00 | 0.00 | 0.00 | 74 | 1013.5 | |
| 20260508002015 | 15 | 0.0 | 0.0 | 0.00 | 0.00 | 0.00 | 74 | 1013.5 | |
| 20260508001015 | 15 | 0.0 | 1.6 | 0.00 | 0.00 | 0.00 | 73 | 1013.6 | |
| 20260508000035 | 15 | 0.0 | 6.4 | 0.00 | 0.00 | 0.00 | 73 | 1013.7 | |
| 20260507235015 | 15 | 0.0 | 6.4 | 0.00 | 0.00 | 0.00 | 73 | 1013.8 | |
| 20260507234015 | 15 | 0.0 | 1.6 | 0.00 | 0.00 | 0.00 | 73 | 1013.8 | |
| 20260507233115 | 14 | 0.0 | 1.6 | 0.00 | 0.00 | 0.00 | 75 | 1013.8 | |
| 20260507232015 | 14 | 0.0 | 1.6 | 0.00 | 0.00 | 0.00 | 76 | 1013.9 | |
| 20260507231035 | 14 | 0.0 | 0.0 | 0.00 | 0.00 | 0.00 | 76 | 1013.8 | |
| 20260507230015 | 14 | 0.0 | 0.0 | 0.00 | 0.00 | 0.00 | 75 | 1013.9 | |
| 20260507225015 | 15 | 0.0 | 0.0 | 0.00 | 0.00 | 0.00 | 73 | 1013.8 | |
| 20260507224015 | 15 | 0.0 | 0.0 | 0.00 | 0.00 | 0.00 | 73 | 1013.7 | |
| 20260507223015 | 15 | 0.0 | 0.0 | 0.00 | 0.00 | 0.00 | 73 | 1013.7 | |
| 20260507222035 | 15 | 0.0 | 1.6 | 0.00 | 0.00 | 0.00 | 73 | 1013.6 | |
| 20260507221015 | 15 | 0.0 | 0.0 | 0.00 | 0.00 | 0.00 | 73 | 1013.6 | |
| 20260507220015 | 15 | 0.0 | 3.2 | 0.00 | 0.00 | 0.00 | 73 | 1013.5 | |
| 20260507215016 | 15 | 0.0 | 3.2 | 0.00 | 0.00 | 0.00 | 73 | 1013.5 | |
| 20260507214016 | 15 | 0.0 | 0.0 | 0.00 | 0.00 | 0.00 | 72 | 1013.5 | |
| 20260507213016 | 15 | 0.0 | 0.0 | 0.00 | 0.03 | 0.00 | 72 | 1013.5 | |
| 20260507212016 | 15 | 0.0 | 4.8 | 0.00 | 0.05 | 0.00 | 73 | 1013.5 | |
| 20260507211016 | 15 | 0.0 | 3.2 | 0.00 | 0.08 | 0.00 | 74 | 1013.5 | |
| 20260507210036 | 15 | 247 | 1.6 | 9.7 | 0.00 | 0.08 | 0.00 | 75 | 1013.5 |
| 20260507205016 | 15 | 0.0 | 4.8 | 0.00 | 0.08 | 0.00 | 75 | 1013.5 | |
| 20260507204016 | 16 | 247 | 3.2 | 6.4 | 0.00 | 0.08 | 0.00 | 73 | 1013.4 |
| 20260507203016 | 16 | 225 | 1.6 | 4.8 | 0.00 | 0.08 | 0.00 | 71 | 1013.3 |
| 20260507202016 | 16 | 180 | 1.6 | 8.0 | 0.00 | 0.08 | 0.00 | 71 | 1013.4 |
| 20260507201016 | 16 | 202 | 3.2 | 11.3 | 0.00 | 0.08 | 0.00 | 70 | 1013.3 |
| 20260507200016 | 16 | 0.0 | 0.0 | 0.00 | 0.08 | 0.00 | 68 | 1012.9 | |
| 20260507195016 | 16 | 0.0 | 0.0 | 0.00 | 0.08 | 0.00 | 68 | 1012.6 | |
| 20260507194016 | 16 | 0.0 | 0.0 | 0.00 | 0.08 | 0.00 | 68 | 1012.6 | |
| 20260507193016 | 16 | 0.0 | 0.0 | 0.00 | 0.08 | 0.00 | 68 | 1012.6 | |
| 20260507192016 | 16 | 0.0 | 0.0 | 0.00 | 0.08 | 0.00 | 68 | 1012.4 | |
| 20260507191056 | 16 | 0.0 | 0.0 | 0.00 | 0.08 | 0.00 | 69 | 1012.2 | |
| 20260507190036 | 16 | 0.0 | 0.0 | 0.00 | 0.08 | 0.00 | 68 | 1012.2 | |
| 20260507185016 | 17 | 0.0 | 0.0 | 0.00 | 0.08 | 0.00 | 70 | 1012.0 | |
| 20260507184016 | 17 | 0.0 | 0.0 | 0.00 | 0.08 | 0.00 | 71 | 1011.9 | |
| 20260507183036 | 17 | 0.0 | 1.6 | 0.00 | 0.08 | 0.00 | 68 | 1011.8 | |
| 20260507182016 | 17 | 270 | 1.6 | 4.8 | 0.00 | 0.08 | 0.00 | 66 | 1011.7 |
| 20260507181036 | 18 | 0.0 | 3.2 | 0.00 | 0.08 | 0.00 | 64 | 1011.7 | |
| 20260507180036 | 18 | 0.0 | 3.2 | 0.00 | 0.08 | 0.00 | 61 | 1011.6 | |
| 20260507175016 | 18 | 247 | 1.6 | 4.8 | 0.00 | 0.08 | 0.00 | 60 | 1011.6 |
| 20260507174036 | 19 | 0.0 | 1.6 | 0.00 | 0.08 | 0.00 | 57 | 1011.4 | |
| 20260507173056 | 20 | 0.0 | 0.0 | 0.00 | 0.08 | 0.00 | 50 | 1011.4 | |
| 20260507172016 | 20 | 0.0 | 3.2 | 0.00 | 0.08 | 0.00 | 48 | 1011.4 | |
| 20260507171016 | 20 | 0.0 | 3.2 | 0.00 | 0.08 | 0.00 | 49 | 1011.3 | |
| 20260507170016 | 20 | 0.0 | 3.2 | 0.00 | 0.08 | 0.00 | 48 | 1011.3 | |
| 20260507165016 | 21 | 157 | 1.6 | 6.4 | 0.00 | 0.08 | 0.00 | 44 | 1011.3 |
| 20260507164016 | 21 | 225 | 1.6 | 6.4 | 0.00 | 0.08 | 0.00 | 45 | 1011.4 |
| 20260507163016 | 21 | 135 | 1.6 | 6.4 | 0.00 | 0.08 | 0.00 | 45 | 1011.4 |
| 20260507162036 | 21 | 157 | 1.6 | 8.0 | 0.00 | 0.08 | 0.00 | 45 | 1011.3 |
| 20260507161016 | 21 | 157 | 1.6 | 8.0 | 0.00 | 0.08 | 0.00 | 45 | 1011.3 |
| 20260507160016 | 20 | 0.0 | 4.8 | 0.00 | 0.08 | 0.00 | 46 | 1011.3 | |
| 20260507155016 | 21 | 292 | 1.6 | 4.8 | 0.00 | 0.08 | 0.00 | 46 | 1011.2 |
| 20260507154016 | 21 | 247 | 3.2 | 9.7 | 0.00 | 0.08 | 0.00 | 46 | 1011.2 |
| 20260507153016 | 20 | 0.0 | 8.0 | 0.00 | 0.08 | 0.00 | 48 | 1011.2 | |
| 20260507152016 | 20 | 90 | 4.8 | 8.0 | 0.00 | 0.08 | 0.00 | 48 | 1011.2 |
| 20260507151016 | 21 | 67 | 1.6 | 11.3 | 0.00 | 0.08 | 0.00 | 46 | 1011.3 |
| 20260507150016 | 20 | 90 | 1.6 | 8.0 | 0.00 | 0.08 | 0.00 | 47 | 1011.4 |
| 20260507145016 | 21 | 225 | 3.2 | 11.3 | 0.00 | 0.08 | 0.00 | 45 | 1011.4 |
| 20260507144016 | 21 | 157 | 3.2 | 8.0 | 0.00 | 0.08 | 0.00 | 46 | 1011.7 |
| 20260507143016 | 21 | 157 | 3.2 | 8.0 | 0.00 | 0.08 | 0.00 | 48 | 1011.7 |
| 20260507142016 | 21 | 157 | 1.6 | 8.0 | 0.00 | 0.08 | 0.00 | 49 | 1011.8 |
| 20260507141016 | 21 | 157 | 3.2 | 11.3 | 0.00 | 0.08 | 0.00 | 47 | 1011.8 |
| 20260507140016 | 20 | 67 | 4.8 | 11.3 | 0.00 | 0.08 | 0.00 | 50 | 1011.8 |
| 20260507135056 | 21 | 180 | 1.6 | 9.7 | 0.00 | 0.08 | 0.00 | 50 | 1011.8 |
| 20260507134016 | 21 | 157 | 3.2 | 9.7 | 0.00 | 0.08 | 0.00 | 48 | 1012.0 |
| 20260507133016 | 21 | 157 | 4.8 | 11.3 | 0.00 | 0.08 | 0.00 | 48 | 1012.1 |
| 20260507132016 | 20 | 90 | 1.6 | 9.7 | 0.00 | 0.08 | 0.00 | 51 | 1012.2 |
| 20260507131016 | 19 | 90 | 3.2 | 11.3 | 0.00 | 0.08 | 0.00 | 51 | 1012.2 |
| 20260507130016 | 19 | 112 | 4.8 | 9.7 | 0.00 | 0.08 | 0.00 | 53 | 1012.2 |
| 20260507125016 | 20 | 135 | 4.8 | 9.7 | 0.00 | 0.08 | 0.00 | 48 | 1012.3 |
| 20260507124016 | 20 | 180 | 1.6 | 8.0 | 0.00 | 0.08 | 0.00 | 50 | 1012.4 |
| 20260507123016 | 21 | 157 | 3.2 | 9.7 | 0.00 | 0.08 | 0.00 | 50 | 1012.5 |
| 20260507122016 | 20 | 180 | 4.8 | 11.3 | 0.00 | 0.08 | 0.00 | 53 | 1012.5 |
| 20260507121016 | 19 | 180 | 4.8 | 12.9 | 0.00 | 0.08 | 0.00 | 57 | 1012.7 |
| 20260507120016 | 19 | 67 | 1.6 | 9.7 | 0.00 | 0.08 | 0.00 | 56 | 1012.8 |
| 20260507115016 | 19 | 112 | 1.6 | 8.0 | 0.00 | 0.08 | 0.00 | 55 | 1012.8 |
| 20260507114056 | 20 | 157 | 3.2 | 12.9 | 0.00 | 0.08 | 0.00 | 57 | 1012.9 |
| 20260507113016 | 20 | 157 | 3.2 | 12.9 | 0.00 | 0.08 | 0.00 | 56 | 1013.0 |
| 20260507112016 | 19 | 180 | 4.8 | 12.9 | 0.00 | 0.08 | 0.00 | 60 | 1013.0 |
| 20260507111136 | 18 | 135 | 4.8 | 12.9 | 0.00 | 0.08 | 0.00 | 61 | 1013.1 |
| 20260507110016 | 17 | 135 | 1.6 | 9.7 | 0.00 | 0.08 | 0.00 | 64 | 1013.2 |
| 20260507105016 | 17 | 45 | 3.2 | 16.1 | 0.00 | 0.08 | 0.00 | 64 | 1013.3 |
| 20260507104016 | 17 | 90 | 4.8 | 12.9 | 0.00 | 0.08 | 0.00 | 61 | 1013.3 |
| 20260507103016 | 18 | 157 | 4.8 | 17.7 | 0.00 | 0.08 | 0.00 | 60 | 1013.3 |
| 20260507102016 | 18 | 180 | 3.2 | 14.5 | 0.00 | 0.08 | 0.00 | 60 | 1013.5 |
| 20260507101016 | 18 | 157 | 4.8 | 14.5 | 0.00 | 0.08 | 0.00 | 61 | 1013.5 |
| 20260507100037 | 17 | 157 | 6.4 | 14.5 | 0.00 | 0.08 | 0.00 | 62 | 1013.4 |
| 20260507095016 | 17 | 180 | 3.2 | 14.5 | 0.00 | 0.08 | 0.00 | 63 | 1013.5 |
| 20260507094016 | 17 | 157 | 3.2 | 12.9 | 0.00 | 0.08 | 0.00 | 64 | 1013.5 |
| 20260507093016 | 17 | 180 | 4.8 | 12.9 | 0.00 | 0.08 | 0.00 | 63 | 1013.4 |
| 20260507092036 | 16 | 157 | 3.2 | 12.9 | 0.00 | 0.08 | 0.00 | 68 | 1013.4 |
| 20260507091016 | 16 | 67 | 1.6 | 11.3 | 0.00 | 0.08 | 0.00 | 68 | 1013.4 |
| 20260507090016 | 16 | 157 | 3.2 | 8.0 | 0.00 | 0.10 | 0.00 | 69 | 1013.3 |
| 20260507085016 | 16 | 180 | 1.6 | 8.0 | 0.00 | 0.10 | 0.00 | 71 | 1013.3 |
| 20260507084016 | 16 | 157 | 3.2 | 9.7 | 0.00 | 0.13 | 0.00 | 72 | 1013.2 |
| 20260507083056 | 15 | 90 | 1.6 | 11.3 | 0.00 | 0.15 | 0.00 | 74 | 1013.3 |
| 20260507082016 | 15 | 90 | 3.2 | 12.9 | 0.00 | 0.18 | 0.00 | 72 | 1013.2 |
| 20260507081016 | 15 | 180 | 3.2 | 8.0 | 0.00 | 0.18 | 0.00 | 74 | 1013.2 |
| 20260507080036 | 15 | 157 | 3.2 | 9.7 | 0.00 | 0.28 | 0.00 | 79 | 1013.2 |
| 20260507075016 | 15 | 157 | 3.2 | 8.0 | 0.00 | 0.28 | 0.00 | 79 | 1013.1 |
| 20260507074016 | 15 | 135 | 3.2 | 8.0 | 0.00 | 0.33 | 0.00 | 80 | 1013.1 |
| 20260507073036 | 15 | 180 | 1.6 | 8.0 | 0.00 | 0.43 | 0.00 | 82 | 1013.2 |
| 20260507072016 | 14 | 90 | 1.6 | 8.0 | 0.00 | 0.64 | 0.00 | 82 | 1013.1 |
| 20260507071036 | 14 | 0.0 | 4.8 | 0.00 | 0.69 | 0.00 | 84 | 1013.1 | |
| 20260507070021 | 13 | 157 | 1.6 | 9.7 | 0.00 | 0.71 | 0.00 | 84 | 1013.0 |
| 20260507065016 | 13 | 0.0 | 1.6 | 0.00 | 0.71 | 0.00 | 84 | 1012.8 | |
| 20260507064016 | 13 | 0.0 | 1.6 | 0.00 | 0.76 | 0.00 | 85 | 1012.8 | |
| 20260507063016 | 12 | 0.0 | 1.6 | 0.00 | 0.91 | 0.00 | 87 | 1012.8 | |
| 20260507062016 | 12 | 0.0 | 1.6 | 0.00 | 0.97 | 0.00 | 90 | 1012.8 | |
| 20260507061016 | 11 | 0.0 | 4.8 | 0.00 | 1.02 | 0.00 | 92 | 1012.7 | |
| 20260507060016 | 11 | 180 | 1.6 | 6.4 | 0.00 | 1.07 | 0.00 | 92 | 1012.7 |
| 20260507055016 | 11 | 157 | 1.6 | 4.8 | 0.00 | 1.37 | 0.00 | 92 | 1012.5 |
| 20260507054016 | 11 | 157 | 1.6 | 6.4 | 0.00 | 1.52 | 0.00 | 92 | 1012.4 |
| 20260507053016 | 11 | 157 | 1.6 | 8.0 | 0.00 | 1.52 | 0.00 | 91 | 1012.3 |
| 20260507052016 | 10 | 0.0 | 3.2 | 0.00 | 1.55 | 0.00 | 92 | 1012.2 | |
| 20260507051016 | 10 | 0.0 | 3.2 | 0.00 | 1.55 | 0.00 | 92 | 1012.1 | |
| 20260507050016 | 10 | 0.0 | 0.0 | 0.00 | 1.57 | 0.00 | 92 | 1011.9 | |
| 20260507045016 | 10 | 0.0 | 0.0 | 0.00 | 1.60 | 0.00 | 93 | 1011.7 | |
| 20260507044016 | 10 | 0.0 | 0.0 | 0.00 | 1.60 | 0.00 | 92 | 1011.7 | |
| 20260507043016 | 10 | 0.0 | 1.6 | 0.00 | 1.65 | 0.00 | 92 | 1011.6 | |
| 20260507042016 | 10 | 0.0 | 0.0 | 0.00 | 1.68 | 0.00 | 92 | 1011.4 | |
| 20260507041016 | 10 | 0.0 | 0.0 | 0.00 | 1.70 | 0.00 | 92 | 1011.3 | |
| 20260507040156 | 10 | 0.0 | 0.0 | 0.00 | 1.73 | 0.00 | 92 | 1011.3 | |
| 20260507035016 | 10 | 0.0 | 0.0 | 0.00 | 1.73 | 0.00 | 93 | 1011.2 | |
| 20260507034016 | 10 | 0.0 | 0.0 | 0.00 | 1.75 | 0.00 | 93 | 1011.2 | |
| 20260507033016 | 10 | 0.0 | 3.2 | 0.00 | 1.78 | 0.00 | 94 | 1011.1 | |
| 20260507032016 | 10 | 0.0 | 0.0 | 0.00 | 1.78 | 0.00 | 94 | 1011.0 | |
| 20260507031016 | 10 | 0.0 | 0.0 | 0.00 | 1.78 | 0.00 | 94 | 1011.1 | |
| 20260507030036 | 10 | 0.0 | 0.0 | 0.00 | 1.78 | 0.00 | 94 | 1011.2 | |
| 20260507025016 | 10 | 0.0 | 3.2 | 0.00 | 1.78 | 0.00 | 94 | 1011.2 | |
| 20260507024016 | 10 | 0.0 | 1.6 | 0.00 | 1.78 | 0.00 | 94 | 1011.2 | |
| 20260507023015 | 10 | 0.0 | 3.2 | 0.00 | 1.78 | 0.00 | 94 | 1011.2 | |
| 20260507022016 | 10 | 0.0 | 3.2 | 0.00 | 1.78 | 0.00 | 94 | 1011.2 | |
| 20260507021016 | 10 | 0.0 | 0.0 | 0.00 | 1.78 | 0.00 | 94 | 1011.2 | |
| 20260507020016 | 10 | 0.0 | 0.0 | 0.00 | 1.78 | 0.00 | 94 | 1011.2 | |
| 20260507015016 | 11 | 0.0 | 0.0 | 0.00 | 1.78 | 0.00 | 94 | 1011.2 |